Findlay, OH

12:06 AM EDT on March 27, 2017 (GMT -0400)
Findlay

Weather History for KFDY - June, 2013

Change the Weather History Date:

Monday, June 3, 2013

  Actual Average Record
Temperature  
Mean Temperature 61 °F -  
Max Temperature 69 °F 72 °F 89 °F (1949)
Min Temperature 53 °F 53 °F 41 °F (1977)
Degree Days  
Heating Degree Days 4    
Growing Degree Days 11 (Base 50)    
Moisture  
Dew Point 44 °F    
Average Humidity 59    
Maximum Humidity 72    
Minimum Humidity 32    
Precipitation  
Precipitation 0.00 in - - ()
Sea Level Pressure  
Sea Level Pressure 30.01 in    
Wind  
Wind Speed 8 mph (North)    
Max Wind Speed 13 mph    
Max Gust Speed -    
Visibility 10 miles    
Events      
Averages and records for this station are not official NWS values.
T = Trace of Precipitation, MM = Missing Value Source: NWS Daily Summary

Daily Weather History Graph

Daily Weather History Graph

Search for Another Location

Airport or City:

Trip Planner

Search our weather history database for the weather conditions in past years. The results will help you decide how hot, cold, wet, or windy it might be!

Date:

Astronomy

Jun. 03, 2013 Rise Set
Actual Time 6:03 AM EDT 9:02 PM EDT
Civil Twilight 5:30 AM EDT 9:35 PM EDT
Nautical Twilight 4:49 AM EDT 10:17 PM EDT
Astronomical Twilight 4:00 AM EDT 11:06 PM EDT
Moon 3:03 AM EDT (6/3) 4:29 PM EDT (6/3)
Length of Visible Light 16h 04m
Length of Day
14h 58m
Waning Crescent, 22% of the Moon is Illuminated
Jun 3
Waning Crescent
Jun 8
New
Jun 16
First Quarter
Jun 23
Full
Jun 30
Last Quarter

Hourly Weather History & Observations

Time (EDT) Temp. Dew Point Humidity Pressure Visibility Wind Dir Wind Speed Gust Speed Precip Events Conditions
12:53 AM 57.9 °F 48.9 °F 72% 29.95 in 10.0 mi North 11.5 mph - N/A   Overcast
1:01 AM 57.2 °F 48.2 °F 72% 29.97 in 10.0 mi North 10.4 mph - N/A   Overcast
1:53 AM 57.0 °F 48.0 °F 72% 29.95 in 10.0 mi NNW 8.1 mph - N/A   Overcast
2:53 AM 55.9 °F 46.9 °F 72% 29.96 in 10.0 mi North 12.7 mph - N/A   Overcast
3:53 AM 55.9 °F 46.0 °F 69% 29.96 in 10.0 mi North 8.1 mph - N/A   Overcast
4:53 AM 55.0 °F 46.0 °F 72% 29.98 in 10.0 mi North 8.1 mph - N/A   Overcast
5:53 AM 54.0 °F 45.0 °F 72% 29.99 in 10.0 mi North 5.8 mph - N/A   Overcast
6:53 AM 53.1 °F 44.1 °F 71% 30.00 in 10.0 mi North 10.4 mph - N/A   Overcast
7:53 AM 53.1 °F 44.1 °F 71% 30.02 in 10.0 mi North 10.4 mph - N/A   Overcast
8:53 AM 53.1 °F 43.0 °F 69% 30.03 in 10.0 mi North 11.5 mph - N/A   Overcast
9:53 AM 53.1 °F 44.1 °F 71% 30.04 in 10.0 mi NNE 9.2 mph - N/A   Overcast
10:53 AM 55.9 °F 46.0 °F 69% 30.05 in 10.0 mi Variable 5.8 mph - N/A   Overcast
11:53 AM 57.0 °F 45.0 °F 64% 30.06 in 10.0 mi ENE 3.5 mph - N/A   Overcast
12:53 PM 60.1 °F 46.0 °F 60% 30.06 in 10.0 mi Calm Calm - N/A   Overcast
1:06 PM 60.8 °F 46.4 °F 59% 30.07 in 10.0 mi Calm Calm - N/A   Overcast
1:53 PM 63.0 °F 46.9 °F 56% 30.04 in 10.0 mi Variable 5.8 mph - N/A   Mostly Cloudy
2:53 PM 64.0 °F 46.0 °F 52% 30.02 in 10.0 mi Variable 4.6 mph - N/A   Partly Cloudy
3:53 PM 66.9 °F 45.0 °F 45% 30.00 in 10.0 mi Variable 5.8 mph - N/A   Clear
4:53 PM 68.0 °F 42.1 °F 39% 29.99 in 10.0 mi Variable 3.5 mph - N/A   Clear
5:53 PM 69.1 °F 37.9 °F 32% 30.00 in 10.0 mi NNW 9.2 mph - N/A   Clear
6:53 PM 68.0 °F 37.9 °F 33% 30.00 in 10.0 mi Variable 5.8 mph - N/A   Clear
7:53 PM 64.9 °F 37.0 °F 36% 30.01 in 10.0 mi NNW 8.1 mph - N/A   Clear
8:53 PM 62.1 °F 37.0 °F 39% 30.02 in 10.0 mi NNW 5.8 mph - N/A   Clear
9:53 PM 57.9 °F 39.9 °F 51% 30.05 in 10.0 mi East 6.9 mph - N/A   Clear
10:53 PM 55.0 °F 39.9 °F 57% 30.07 in 10.0 mi SE 4.6 mph - N/A   Clear
11:53 PM 54.0 °F 39.9 °F 59% 30.09 in 10.0 mi Calm Calm - N/A   Clear